Location: Fauquembergues
(50.6005°N, 2.0987°E)
Time: 08:27:58
(UTC+00:00)

Cosmos 1515 - Pass Details

Date: 14 July 2020
Orbit: 507 x 515 km, 82.5° (Epoch: 14 August)

Event Time Altitude Azimuth Distance (km) Brightness Sun altitude
Rises 01:08:02 0° 350° (N) 2,643 8.5 -16.1°
Reaches altitude 10° 01:10:11 10° 351° (N) 1,752 7.4 -16.0°
Maximum altitude 01:14:02 86° 79° (ENE) 524 3.6 -15.8°
Enters shadow 01:16:00 28° 168° (SSE) 1,001 4.7 -15.7°
